Location: Arbon
(43.0005°N, 0.7472°E)
Time: 15:03:01
(UTC+00:00)

Envisat - Visible Passes

Search period start: 09 December 2021 00:00
Search period end: 19 December 2021 00:00
Orbit: 764 x 766 km, 98.2° (Epoch: 09 December)

Date Brightness Start Highest point End Pass type
(mag) Time Alt. Az. Time Alt. Az. Time Alt. Az.
09 Dec 4.9 04:09:21 10° NE 04:13:43 28° E 04:18:03 10° SSE visible
09 Dec 3.5 05:48:09 10° N 05:52:46 36° WNW 05:57:22 10° SW visible
09 Dec 5.5 17:04:18 10° SSW 17:08:26 25° W 17:12:35 10° NW visible
10 Dec 5.9 03:34:16 10° ENE 03:36:28 13° E 03:38:40 10° ESE visible
10 Dec 2.8 05:10:58 10° N 05:16:04 78° WNW 05:21:08 10° SSW visible
11 Dec 3.9 04:34:14 10° NNE 04:39:10 48° E 04:44:03 10° S visible
11 Dec 4.1 06:13:59 10° NNW 06:17:50 22° WNW 06:21:41 10° WSW visible
11 Dec 6.0 17:31:17 10° WSW 17:34:00 14° W 17:36:44 10° WNW visible
12 Dec 5.2 03:58:07 10° NE 04:02:04 22° E 04:05:59 10° SE visible
12 Dec 3.2 05:36:26 10° N 05:41:17 45° WNW 05:46:05 10° SW visible
12 Dec 5.1 16:52:18 10° SSW 16:56:47 31° W 17:01:18 10° NNW visible
13 Dec 3.0 04:59:24 10° NNE 05:04:31 84° ESE 05:09:36 10° SSW visible
13 Dec 4.6 06:40:22 10° NNW 06:42:49 14° WNW 06:45:16 10° W visible
14 Dec 4.3 04:22:49 10° NNE 04:27:33 38° E 04:32:15 10° SSE visible
14 Dec 3.8 06:02:08 10° N 06:06:23 27° WNW 06:10:37 10° WSW visible
14 Dec 5.8 17:18:50 10° SW 17:22:19 18° W 17:25:48 10° NW visible
15 Dec 5.5 03:47:01 10° NE 03:50:24 18° E 03:53:45 10° SE visible
15 Dec 3.0 05:24:47 10° N 05:29:46 57° WNW 05:34:44 10° SSW visible
16 Dec 3.3 04:47:52 10° NNE 04:52:56 66° ESE 04:57:59 10° S visible
16 Dec 4.4 06:28:14 10° NNW 06:31:25 17° WNW 06:34:35 10° W visible
16 Dec 6.5 17:47:39 10° W 17:47:56 10° W 17:48:14 10° W visible
17 Dec 4.7 04:11:28 10° NE 04:15:55 30° E 04:20:21 10° SSE visible
17 Dec 3.6 05:50:23 10° N 05:54:55 34° WNW 05:59:27 10° SW visible
17 Dec 5.6 17:06:38 10° SW 17:10:39 23° W 17:14:40 10° NW visible
18 Dec 5.8 03:36:09 10° ENE 03:38:41 14° E 03:41:14 10° ESE visible
18 Dec 2.8 05:13:09 10° N 05:18:14 73° WNW 05:23:17 10° SSW visible
